Time,TemperatureF,DewpointF,PressureIn,WindDirection,WindDirectionDegrees,WindSpeedMPH,WindSpeedGustMPH,Humidity,HourlyPrecipIn,Conditions,Clouds,dailyrainin,SoftwareType,DateUTC
2013-02-11 00:00:00,42.5,38.9,30.26,NW,315,0.0,0.0,87,0.00,,,0.00,WUHU216HW,2013-02-11 08:00:00,
2013-02-11 00:05:00,42.5,38.9,30.26,NNW,338,0.0,0.2,87,0.00,,,0.00,WUHU216HW,2013-02-11 08:05:00,
2013-02-11 00:10:00,42.5,38.9,30.26,NW,315,0.0,0.2,87,0.00,,,0.00,WUHU216HW,2013-02-11 08:10:00,
2013-02-11 00:15:00,42.5,38.9,30.26,WSW,248,0.0,0.4,87,0.00,,,0.00,WUHU216HW,2013-02-11 08:15:00,
2013-02-11 00:20:00,42.5,38.9,30.25,West,270,0.0,0.4,87,0.00,,,0.00,WUHU216HW,2013-02-11 08:20:00,
2013-02-11 00:25:00,42.3,38.7,30.25,West,270,0.0,0.0,87,0.00,,,0.00,WUHU216HW,2013-02-11 08:25:00,
2013-02-11 00:30:00,42.5,38.9,30.25,West,270,0.0,0.0,87,0.00,,,0.00,WUHU216HW,2013-02-11 08:30:00,
2013-02-11 00:35:00,42.3,39.0,30.26,NW,315,0.0,0.0,88,0.00,,,0.00,WUHU216HW,2013-02-11 08:35:00,
2013-02-11 00:40:00,42.3,39.0,30.26,NW,315,0.0,0.2,88,0.00,,,0.00,WUHU216HW,2013-02-11 08:40:00,
2013-02-11 00:45:00,42.3,38.7,30.26,WNW,293,0.0,0.2,87,0.00,,,0.00,WUHU216HW,2013-02-11 08:45:00,
2013-02-11 00:50:00,42.3,39.0,30.27,WNW,293,0.0,0.2,88,0.00,,,0.00,WUHU216HW,2013-02-11 08:50:00,
2013-02-11 00:55:00,42.3,39.0,30.26,NW,315,0.0,0.2,88,0.00,,,0.00,WUHU216HW,2013-02-11 08:55:00,
2013-02-11 01:00:00,42.3,39.0,30.26,WNW,293,0.0,0.2,88,0.00,,,0.00,WUHU216HW,2013-02-11 09:00:00,
2013-02-11 01:05:00,42.1,38.8,30.27,WNW,293,0.0,0.2,88,0.00,,,0.00,WUHU216HW,2013-02-11 09:05:00,
2013-02-11 01:10:00,42.1,38.8,30.26,NW,315,0.0,0.2,88,0.00,,,0.00,WUHU216HW,2013-02-11 09:10:00,
2013-02-11 01:15:00,42.1,38.8,30.26,NW,315,0.0,0.2,88,0.00,,,0.00,WUHU216HW,2013-02-11 09:15:00,
2013-02-11 01:20:00,42.1,38.8,30.26,NNW,338,0.0,0.2,88,0.00,,,0.00,WUHU216HW,2013-02-11 09:20:00,
2013-02-11 01:25:00,42.1,38.8,30.27,NW,315,0.0,0.2,88,0.00,,,0.00,WUHU216HW,2013-02-11 09:25:00,
2013-02-11 01:30:00,42.1,38.8,30.27,NW,315,0.0,0.0,88,0.00,,,0.00,WUHU216HW,2013-02-11 09:30:00,
2013-02-11 01:35:00,42.1,38.8,30.27,NW,315,0.0,0.4,88,0.00,,,0.00,WUHU216HW,2013-02-11 09:35:00,
2013-02-11 01:40:00,42.1,38.8,30.27,WSW,248,0.2,0.4,88,0.00,,,0.00,WUHU216HW,2013-02-11 09:40:00,
2013-02-11 01:45:00,42.1,38.5,30.27,SW,225,0.0,0.4,87,0.00,,,0.00,WUHU216HW,2013-02-11 09:45:00,
2013-02-11 01:50:00,42.1,38.5,30.27,NW,315,0.0,0.4,87,0.00,,,0.00,WUHU216HW,2013-02-11 09:50:00,
2013-02-11 01:55:00,42.1,38.5,30.27,NNW,338,0.2,1.1,87,0.00,,,0.00,WUHU216HW,2013-02-11 09:55:00,
2013-02-11 02:00:00,42.1,38.5,30.28,WNW,293,0.0,1.1,87,0.00,,,0.00,WUHU216HW,2013-02-11 10:00:00,
2013-02-11 02:05:00,42.1,38.5,30.28,NNW,338,0.0,0.4,87,0.00,,,0.00,WUHU216HW,2013-02-11 10:05:00,
2013-02-11 02:10:00,42.1,38.5,30.28,North,0,0.2,0.4,87,0.00,,,0.00,WUHU216HW,2013-02-11 10:10:00,
2013-02-11 02:15:00,42.1,38.5,30.28,NNW,338,0.0,1.1,87,0.00,,,0.00,WUHU216HW,2013-02-11 10:15:00,
2013-02-11 02:20:00,42.1,38.5,30.28,NNW,338,0.0,1.1,87,0.00,,,0.00,WUHU216HW,2013-02-11 10:20:00,
2013-02-11 02:25:00,42.1,38.5,30.28,NW,315,0.0,0.4,87,0.00,,,0.00,WUHU216HW,2013-02-11 10:25:00,
2013-02-11 02:30:00,42.1,38.5,30.28,North,0,0.2,0.4,87,0.00,,,0.00,WUHU216HW,2013-02-11 10:30:00,
2013-02-11 02:35:00,42.1,38.5,30.28,NE,45,0.2,1.6,87,0.00,,,0.00,WUHU216HW,2013-02-11 10:35:00,
2013-02-11 02:40:00,42.1,38.5,30.28,NW,315,0.2,1.6,87,0.00,,,0.00,WUHU216HW,2013-02-11 10:40:00,
2013-02-11 02:45:00,41.9,38.4,30.28,NNE,23,0.4,0.9,87,0.00,,,0.00,WUHU216HW,2013-02-11 10:45:00,
2013-02-11 02:50:00,41.9,38.4,30.29,North,0,0.4,0.7,87,0.00,,,0.00,WUHU216HW,2013-02-11 10:50:00,
2013-02-11 02:55:00,41.9,38.4,30.28,NE,45,0.2,1.1,87,0.00,,,0.00,WUHU216HW,2013-02-11 10:55:00,
2013-02-11 03:00:00,41.9,38.4,30.29,North,0,0.0,1.1,87,0.00,,,0.00,WUHU216HW,2013-02-11 11:00:00,
2013-02-11 03:05:00,41.9,38.4,30.28,NW,315,0.0,0.7,87,0.00,,,0.00,WUHU216HW,2013-02-11 11:05:00,
2013-02-11 03:10:00,41.9,38.4,30.28,North,0,0.2,0.7,87,0.00,,,0.00,WUHU216HW,2013-02-11 11:10:00,
2013-02-11 03:15:00,41.9,38.4,30.28,WNW,293,0.0,0.4,87,0.00,,,0.00,WUHU216HW,2013-02-11 11:15:00,
2013-02-11 03:20:00,41.8,38.2,30.28,North,0,0.0,0.7,87,0.00,,,0.00,WUHU216HW,2013-02-11 11:20:00,
2013-02-11 03:25:00,41.8,38.2,30.28,NW,315,0.0,0.7,87,0.00,,,0.00,WUHU216HW,2013-02-11 11:25:00,
2013-02-11 03:30:00,41.8,38.2,30.28,NNW,338,0.2,0.4,87,0.00,,,0.00,WUHU216HW,2013-02-11 11:30:00,
2013-02-11 03:35:00,41.8,38.2,30.28,NNE,23,0.4,1.1,87,0.00,,,0.00,WUHU216HW,2013-02-11 11:35:00,
2013-02-11 03:40:00,41.8,38.2,30.28,NNE,23,0.9,1.1,87,0.00,,,0.00,WUHU216HW,2013-02-11 11:40:00,
2013-02-11 03:45:00,41.8,38.2,30.28,North,0,0.0,1.1,87,0.00,,,0.00,WUHU216HW,2013-02-11 11:45:00,
2013-02-11 03:50:00,41.8,38.2,30.28,NW,315,0.0,1.1,87,0.00,,,0.00,WUHU216HW,2013-02-11 11:50:00,
2013-02-11 03:55:00,41.8,38.2,30.28,North,0,0.2,0.4,87,0.00,,,0.00,WUHU216HW,2013-02-11 11:55:00,
2013-02-11 04:00:00,41.8,38.2,30.28,NW,315,0.2,0.4,87,0.00,,,0.00,WUHU216HW,2013-02-11 12:00:00,
2013-02-11 04:05:00,41.8,38.2,30.29,NW,315,0.2,0.4,87,0.00,,,0.00,WUHU216HW,2013-02-11 12:05:00,
2013-02-11 04:10:00,41.8,38.2,30.29,NW,315,0.0,0.2,87,0.00,,,0.00,WUHU216HW,2013-02-11 12:10:00,
2013-02-11 04:15:00,41.8,38.2,30.29,NNW,338,0.2,0.4,87,0.00,,,0.00,WUHU216HW,2013-02-11 12:15:00,
2013-02-11 04:20:00,41.6,38.0,30.28,North,0,0.0,0.4,87,0.00,,,0.00,WUHU216HW,2013-02-11 12:20:00,
2013-02-11 04:25:00,41.6,38.0,30.28,NW,315,0.0,0.4,87,0.00,,,0.00,WUHU216HW,2013-02-11 12:25:00,
2013-02-11 04:30:00,41.6,38.0,30.29,NW,315,0.0,0.2,87,0.00,,,0.00,WUHU216HW,2013-02-11 12:30:00,
2013-02-11 04:35:00,41.6,38.0,30.29,NW,315,0.0,0.2,87,0.00,,,0.00,WUHU216HW,2013-02-11 12:35:00,
2013-02-11 04:40:00,41.6,38.0,30.29,NW,315,0.0,0.2,87,0.00,,,0.00,WUHU216HW,2013-02-11 12:40:00,
2013-02-11 04:45:00,41.6,38.0,30.28,WNW,293,0.0,0.0,87,0.00,,,0.00,WUHU216HW,2013-02-11 12:45:00,
2013-02-11 04:50:00,41.4,38.1,30.29,North,0,0.0,0.2,88,0.00,,,0.00,WUHU216HW,2013-02-11 12:50:00,
2013-02-11 04:55:00,41.4,37.8,30.29,NNW,338,0.0,0.2,87,0.00,,,0.00,WUHU216HW,2013-02-11 12:55:00,
2013-02-11 05:00:00,41.4,37.8,30.29,West,270,0.0,0.2,87,0.00,,,0.00,WUHU216HW,2013-02-11 13:00:00,
2013-02-11 05:05:00,41.4,37.8,30.29,West,270,0.0,0.0,87,0.00,,,0.00,WUHU216HW,2013-02-11 13:05:00,
2013-02-11 05:10:00,41.4,37.8,30.29,North,0,0.0,0.2,87,0.00,,,0.00,WUHU216HW,2013-02-11 13:10:00,
2013-02-11 05:15:00,41.4,37.8,30.29,NNW,338,0.0,0.2,87,0.00,,,0.00,WUHU216HW,2013-02-11 13:15:00,
2013-02-11 05:20:00,41.4,37.8,30.29,NNW,338,0.0,0.2,87,0.00,,,0.00,WUHU216HW,2013-02-11 13:20:00,
2013-02-11 05:25:00,41.4,37.8,30.30,NW,315,0.0,0.4,87,0.00,,,0.00,WUHU216HW,2013-02-11 13:25:00,
2013-02-11 05:30:00,41.4,37.8,30.30,NW,315,0.0,0.4,87,0.00,,,0.00,WUHU216HW,2013-02-11 13:30:00,
2013-02-11 05:35:00,41.4,37.8,30.29,NW,315,0.0,0.0,87,0.00,,,0.00,WUHU216HW,2013-02-11 13:35:00,
2013-02-11 05:40:00,41.4,38.1,30.29,NNW,338,0.0,0.0,88,0.00,,,0.00,WUHU216HW,2013-02-11 13:40:00,
2013-02-11 05:45:00,41.4,38.4,30.30,WNW,293,0.0,0.0,89,0.00,,,0.00,WUHU216HW,2013-02-11 13:45:00,
2013-02-11 05:50:00,41.2,37.9,30.29,NW,315,0.0,0.4,88,0.00,,,0.00,WUHU216HW,2013-02-11 13:50:00,
2013-02-11 05:55:00,41.2,37.9,30.30,NW,315,0.0,0.4,88,0.00,,,0.00,WUHU216HW,2013-02-11 13:55:00,
2013-02-11 06:00:00,41.2,37.9,30.30,WNW,293,0.0,0.0,88,0.00,,,0.00,WUHU216HW,2013-02-11 14:00:00,
2013-02-11 06:05:00,41.2,37.9,30.30,WNW,293,0.0,0.4,88,0.00,,,0.00,WUHU216HW,2013-02-11 14:05:00,
2013-02-11 06:10:00,41.2,37.9,30.30,WNW,293,0.0,0.4,88,0.00,,,0.00,WUHU216HW,2013-02-11 14:10:00,
2013-02-11 06:15:00,41.0,37.7,30.30,WNW,293,0.0,0.2,88,0.00,,,0.00,WUHU216HW,2013-02-11 14:15:00,
2013-02-11 06:20:00,41.2,37.9,30.30,WNW,293,0.0,0.4,88,0.00,,,0.00,WUHU216HW,2013-02-11 14:20:00,
2013-02-11 06:25:00,41.0,38.1,30.30,WNW,293,0.0,0.4,89,0.00,,,0.00,WUHU216HW,2013-02-11 14:25:00,
2013-02-11 06:30:00,41.0,37.7,30.30,NW,315,0.0,0.2,88,0.00,,,0.00,WUHU216HW,2013-02-11 14:30:00,
2013-02-11 06:35:00,41.0,38.1,30.30,WNW,293,0.2,0.2,89,0.00,,,0.00,WUHU216HW,2013-02-11 14:35:00,
2013-02-11 06:40:00,41.0,38.1,30.30,North,0,0.0,0.2,89,0.00,,,0.00,WUHU216HW,2013-02-11 14:40:00,
2013-02-11 06:45:00,41.2,38.3,30.30,WNW,293,0.0,0.0,89,0.00,,,0.00,WUHU216HW,2013-02-11 14:45:00,
2013-02-11 06:50:00,41.2,38.3,30.30,WNW,293,0.0,0.0,89,0.00,,,0.00,WUHU216HW,2013-02-11 14:50:00,
2013-02-11 06:55:00,41.0,38.1,30.30,WNW,293,0.0,0.0,89,0.00,,,0.00,WUHU216HW,2013-02-11 14:55:00,
2013-02-11 07:00:00,41.0,38.1,30.30,NW,315,0.0,0.4,89,0.00,,,0.00,WUHU216HW,2013-02-11 15:00:00,
2013-02-11 07:05:00,41.2,38.5,30.31,WNW,293,0.0,0.4,90,0.00,,,0.00,WUHU216HW,2013-02-11 15:05:00,
2013-02-11 07:10:00,41.4,38.4,30.31,WNW,293,0.0,0.2,89,0.00,,,0.00,WUHU216HW,2013-02-11 15:10:00,
2013-02-11 07:15:00,41.2,38.3,30.31,NW,315,0.0,0.2,89,0.00,,,0.00,WUHU216HW,2013-02-11 15:15:00,
2013-02-11 07:20:00,41.4,38.4,30.32,WNW,293,0.0,0.2,89,0.00,,,0.00,WUHU216HW,2013-02-11 15:20:00,
2013-02-11 07:25:00,41.4,38.4,30.32,NW,315,0.0,0.2,89,0.00,,,0.00,WUHU216HW,2013-02-11 15:25:00,
2013-02-11 07:30:00,41.4,38.4,30.31,NW,315,0.0,0.2,89,0.00,,,0.00,WUHU216HW,2013-02-11 15:30:00,
2013-02-11 07:35:00,41.6,38.6,30.31,NW,315,0.0,0.0,89,0.00,,,0.00,WUHU216HW,2013-02-11 15:35:00,
2013-02-11 07:40:00,41.6,38.6,30.31,NW,315,0.0,0.0,89,0.00,,,0.00,WUHU216HW,2013-02-11 15:40:00,
2013-02-11 07:45:00,41.9,39.0,30.32,NW,315,0.0,0.0,89,0.00,,,0.00,WUHU216HW,2013-02-11 15:45:00,
2013-02-11 07:50:00,41.9,39.0,30.32,NW,315,0.0,0.0,89,0.00,,,0.00,WUHU216HW,2013-02-11 15:50:00,
2013-02-11 07:55:00,42.1,39.2,30.32,WNW,293,0.0,0.2,89,0.00,,,0.00,WUHU216HW,2013-02-11 15:55:00,
2013-02-11 08:00:00,42.3,39.0,30.32,NW,315,0.0,0.2,88,0.00,,,0.00,WUHU216HW,2013-02-11 16:00:00,
2013-02-11 08:05:00,42.5,39.2,30.32,NW,315,0.0,0.0,88,0.00,,,0.00,WUHU216HW,2013-02-11 16:05:00,
2013-02-11 08:10:00,42.1,38.8,30.32,NW,315,0.0,0.0,88,0.00,,,0.00,WUHU216HW,2013-02-11 16:10:00,
2013-02-11 08:15:00,42.1,38.8,30.32,NW,315,0.0,0.0,88,0.00,,,0.00,WUHU216HW,2013-02-11 16:15:00,
2013-02-11 08:20:00,42.1,38.8,30.32,NW,315,0.0,0.0,88,0.00,,,0.00,WUHU216HW,2013-02-11 16:20:00,
2013-02-11 08:25:00,42.5,39.2,30.32,West,270,0.0,0.0,88,0.00,,,0.00,WUHU216HW,2013-02-11 16:25:00,
2013-02-11 08:30:00,42.7,39.3,30.32,West,270,0.0,0.0,88,0.00,,,0.00,WUHU216HW,2013-02-11 16:30:00,
2013-02-11 08:35:00,43.0,39.7,30.32,West,270,0.0,0.0,88,0.00,,,0.00,WUHU216HW,2013-02-11 16:35:00,
2013-02-11 08:40:00,43.2,39.6,30.32,West,270,0.0,0.0,87,0.00,,,0.00,WUHU216HW,2013-02-11 16:40:00,
2013-02-11 08:45:00,43.2,39.6,30.32,WNW,293,0.0,0.0,87,0.00,,,0.00,WUHU216HW,2013-02-11 16:45:00,
2013-02-11 08:50:00,43.2,39.6,30.32,West,270,0.0,0.0,87,0.00,,,0.00,WUHU216HW,2013-02-11 16:50:00,
2013-02-11 08:55:00,43.2,39.6,30.32,SW,225,0.0,0.4,87,0.00,,,0.00,WUHU216HW,2013-02-11 16:55:00,
2013-02-11 09:00:00,43.2,39.9,30.32,NW,315,0.2,0.4,88,0.00,,,0.00,WUHU216HW,2013-02-11 17:00:00,
2013-02-11 09:05:00,43.4,40.1,30.31,WSW,248,0.2,0.2,88,0.00,,,0.00,WUHU216HW,2013-02-11 17:05:00,
2013-02-11 09:10:00,43.4,40.1,30.31,WSW,248,0.0,0.7,88,0.00,,,0.00,WUHU216HW,2013-02-11 17:10:00,
2013-02-11 09:15:00,43.6,40.2,30.32,SW,225,0.0,0.7,88,0.00,,,0.00,WUHU216HW,2013-02-11 17:15:00,
2013-02-11 09:20:00,43.7,40.2,30.32,West,270,0.0,1.1,87,0.00,,,0.00,WUHU216HW,2013-02-11 17:20:00,
2013-02-11 09:25:00,43.9,40.3,30.32,WNW,293,0.0,1.1,87,0.00,,,0.00,WUHU216HW,2013-02-11 17:25:00,
2013-02-11 09:30:00,43.9,40.3,30.32,WSW,248,0.0,1.1,87,0.00,,,0.00,WUHU216HW,2013-02-11 17:30:00,
2013-02-11 09:35:00,44.1,40.5,30.32,SW,225,1.1,1.6,87,0.00,,,0.00,WUHU216HW,2013-02-11 17:35:00,
2013-02-11 09:40:00,44.1,40.1,30.32,WSW,248,0.4,1.6,86,0.00,,,0.00,WUHU216HW,2013-02-11 17:40:00,
2013-02-11 09:45:00,44.3,40.3,30.32,West,270,0.4,1.1,86,0.00,,,0.00,WUHU216HW,2013-02-11 17:45:00,
2013-02-11 09:50:00,44.5,40.2,30.32,NW,315,0.0,1.1,85,0.00,,,0.00,WUHU216HW,2013-02-11 17:50:00,
2013-02-11 09:55:00,44.5,40.0,30.32,NNE,23,0.0,0.7,84,0.00,,,0.00,WUHU216HW,2013-02-11 17:55:00,
2013-02-11 10:00:00,44.8,40.6,30.32,NNW,338,0.0,0.4,85,0.00,,,0.00,WUHU216HW,2013-02-11 18:00:00,
2013-02-11 10:05:00,45.0,40.5,30.33,NW,315,0.0,0.2,84,0.00,,,0.00,WUHU216HW,2013-02-11 18:05:00,
2013-02-11 10:10:00,45.2,40.7,30.33,SW,225,0.0,0.9,84,0.00,,,0.00,WUHU216HW,2013-02-11 18:10:00,
2013-02-11 10:15:00,45.5,40.4,30.33,NW,315,0.2,0.9,82,0.00,,,0.00,WUHU216HW,2013-02-11 18:15:00,
2013-02-11 10:20:00,45.7,40.6,30.33,SE,135,1.3,1.6,82,0.00,,,0.00,WUHU216HW,2013-02-11 18:20:00,
2013-02-11 10:25:00,45.9,40.8,30.33,South,180,0.7,1.6,82,0.00,,,0.00,WUHU216HW,2013-02-11 18:25:00,
2013-02-11 10:30:00,46.1,40.6,30.33,South,180,1.1,1.6,81,0.00,,,0.00,WUHU216HW,2013-02-11 18:30:00,
2013-02-11 10:35:00,46.1,40.6,30.33,WSW,248,0.9,2.2,81,0.00,,,0.00,WUHU216HW,2013-02-11 18:35:00,
2013-02-11 10:40:00,46.4,40.7,30.33,SW,225,0.0,2.2,80,0.00,,,0.00,WUHU216HW,2013-02-11 18:40:00,
2013-02-11 10:45:00,46.8,41.1,30.33,SSW,203,0.2,2.5,80,0.00,,,0.00,WUHU216HW,2013-02-11 18:45:00,
2013-02-11 10:50:00,47.2,41.3,30.33,SSW,203,1.1,2.5,80,0.00,,,0.00,WUHU216HW,2013-02-11 18:50:00,
2013-02-11 10:55:00,47.3,41.5,30.33,SSE,158,0.2,2.5,80,0.00,,,0.00,WUHU216HW,2013-02-11 18:55:00,
2013-02-11 11:00:00,47.3,41.5,30.33,South,180,1.1,2.5,80,0.00,,,0.00,WUHU216HW,2013-02-11 19:00:00,
2013-02-11 11:05:00,47.3,41.1,30.33,South,180,0.7,1.8,79,0.00,,,0.00,WUHU216HW,2013-02-11 19:05:00,
2013-02-11 11:10:00,47.3,41.1,30.33,South,180,1.1,1.6,79,0.00,,,0.00,WUHU216HW,2013-02-11 19:10:00,
2013-02-11 11:15:00,47.5,40.6,30.34,NE,45,0.2,2.5,77,0.00,,,0.00,WUHU216HW,2013-02-11 19:15:00,
2013-02-11 11:20:00,47.7,41.1,30.34,SSW,203,0.4,2.5,78,0.00,,,0.00,WUHU216HW,2013-02-11 19:20:00,
2013-02-11 11:25:00,47.5,41.0,30.34,SSW,203,0.4,1.8,78,0.00,,,0.00,WUHU216HW,2013-02-11 19:25:00,
2013-02-11 11:30:00,47.3,40.5,30.33,SSW,203,0.9,2.2,77,0.00,,,0.00,WUHU216HW,2013-02-11 19:30:00,
2013-02-11 11:35:00,47.2,40.3,30.33,SSW,203,0.2,2.2,77,0.00,,,0.00,WUHU216HW,2013-02-11 19:35:00,
2013-02-11 11:40:00,47.3,40.5,30.33,SSW,203,1.1,2.0,77,0.00,,,0.00,WUHU216HW,2013-02-11 19:40:00,
2013-02-11 11:45:00,47.5,40.6,30.33,SW,225,0.7,2.0,77,0.00,,,0.00,WUHU216HW,2013-02-11 19:45:00,
2013-02-11 11:50:00,47.5,40.6,30.33,SSW,203,0.7,1.6,77,0.00,,,0.00,WUHU216HW,2013-02-11 19:50:00,
2013-02-11 11:55:00,47.7,40.8,30.33,SSE,158,1.1,1.8,77,0.00,,,0.00,WUHU216HW,2013-02-11 19:55:00,
2013-02-11 12:00:00,47.9,40.6,30.33,SSW,203,1.1,1.8,76,0.00,,,0.00,WUHU216HW,2013-02-11 20:00:00,
2013-02-11 12:05:00,47.9,40.6,30.33,SSW,203,1.8,1.8,76,0.00,,,0.00,WUHU216HW,2013-02-11 20:05:00,
2013-02-11 12:10:00,47.7,40.2,30.33,SSE,158,0.0,2.5,75,0.00,,,0.00,WUHU216HW,2013-02-11 20:10:00,
2013-02-11 12:15:00,47.9,40.2,30.33,South,180,1.1,2.5,75,0.00,,,0.00,WUHU216HW,2013-02-11 20:15:00,
2013-02-11 12:20:00,48.1,40.4,30.33,SW,225,1.6,1.8,75,0.00,,,0.00,WUHU216HW,2013-02-11 20:20:00,
2013-02-11 12:25:00,48.1,40.4,30.33,South,180,1.1,2.5,75,0.00,,,0.00,WUHU216HW,2013-02-11 20:25:00,
2013-02-11 12:30:00,48.1,40.4,30.33,SSW,203,0.4,2.5,75,0.00,,,0.00,WUHU216HW,2013-02-11 20:30:00,
2013-02-11 12:35:00,47.9,40.2,30.33,SW,225,0.7,2.5,75,0.00,,,0.00,WUHU216HW,2013-02-11 20:35:00,
2013-02-11 12:40:00,47.7,40.2,30.33,SW,225,1.1,4.0,75,0.00,,,0.00,WUHU216HW,2013-02-11 20:40:00,
2013-02-11 12:45:00,47.7,40.2,30.33,SSE,158,2.0,4.0,75,0.00,,,0.00,WUHU216HW,2013-02-11 20:45:00,
2013-02-11 12:50:00,47.5,40.0,30.33,WSW,248,1.3,4.7,75,0.00,,,0.00,WUHU216HW,2013-02-11 20:50:00,
2013-02-11 12:55:00,47.5,40.0,30.32,SSE,158,1.6,4.7,75,0.00,,,0.00,WUHU216HW,2013-02-11 20:55:00,
2013-02-11 13:00:00,47.7,40.2,30.33,SE,135,0.9,2.7,75,0.00,,,0.00,WUHU216HW,2013-02-11 21:00:00,
2013-02-11 13:05:00,47.7,40.2,30.33,SSE,158,1.8,3.6,75,0.00,,,0.00,WUHU216HW,2013-02-11 21:05:00,
2013-02-11 13:10:00,47.7,40.2,30.33,SE,135,2.7,3.6,75,0.00,,,0.00,WUHU216HW,2013-02-11 21:10:00,
2013-02-11 13:15:00,47.9,40.2,30.33,SW,225,0.4,3.4,75,0.00,,,0.00,WUHU216HW,2013-02-11 21:15:00,
2013-02-11 13:20:00,47.9,40.2,30.33,South,180,1.6,2.9,75,0.00,,,0.00,WUHU216HW,2013-02-11 21:20:00,
2013-02-11 13:25:00,48.2,40.6,30.33,SSE,158,0.7,2.5,75,0.00,,,0.00,WUHU216HW,2013-02-11 21:25:00,
2013-02-11 13:30:00,48.2,40.2,30.33,SSE,158,0.4,2.5,74,0.00,,,0.00,WUHU216HW,2013-02-11 21:30:00,
2013-02-11 13:35:00,48.6,41.0,30.33,SSE,158,0.7,3.4,75,0.00,,,0.00,WUHU216HW,2013-02-11 21:35:00,
2013-02-11 13:40:00,48.8,40.8,30.33,SE,135,1.3,3.4,74,0.00,,,0.00,WUHU216HW,2013-02-11 21:40:00,
2013-02-11 13:45:00,48.8,40.8,30.33,ESE,113,0.2,2.7,74,0.00,,,0.00,WUHU216HW,2013-02-11 21:45:00,
2013-02-11 13:50:00,48.8,40.8,30.33,South,180,2.7,2.7,74,0.00,,,0.00,WUHU216HW,2013-02-11 21:50:00,
2013-02-11 13:55:00,48.6,40.6,30.33,SE,135,1.3,2.7,74,0.00,,,0.00,WUHU216HW,2013-02-11 21:55:00,
2013-02-11 14:00:00,48.4,40.8,30.33,SSE,158,1.1,3.4,75,0.00,,,0.00,WUHU216HW,2013-02-11 22:00:00,
2013-02-11 14:05:00,48.6,41.0,30.33,SSE,158,1.1,3.4,75,0.00,,,0.00,WUHU216HW,2013-02-11 22:05:00,
2013-02-11 14:10:00,48.6,41.0,30.33,SSW,203,1.6,3.1,75,0.00,,,0.00,WUHU216HW,2013-02-11 22:10:00,
2013-02-11 14:15:00,48.4,40.4,30.33,SW,225,1.8,3.1,74,0.00,,,0.00,WUHU216HW,2013-02-11 22:15:00,
2013-02-11 14:20:00,48.4,40.8,30.33,SSE,158,0.4,1.8,75,0.00,,,0.00,WUHU216HW,2013-02-11 22:20:00,
2013-02-11 14:25:00,48.6,41.0,30.33,SW,225,1.1,1.8,75,0.00,,,0.00,WUHU216HW,2013-02-11 22:25:00,
2013-02-11 14:30:00,49.0,41.3,30.33,SSW,203,0.7,1.8,75,0.00,,,0.00,WUHU216HW,2013-02-11 22:30:00,
2013-02-11 14:35:00,48.8,40.8,30.33,SSE,158,2.2,2.5,74,0.00,,,0.00,WUHU216HW,2013-02-11 22:35:00,
2013-02-11 14:40:00,49.0,41.0,30.33,South,180,0.7,2.5,74,0.00,,,0.00,WUHU216HW,2013-02-11 22:40:00,
2013-02-11 14:45:00,49.0,41.0,30.33,WSW,248,1.1,2.5,74,0.00,,,0.00,WUHU216HW,2013-02-11 22:45:00,
2013-02-11 14:50:00,49.0,41.3,30.33,SSE,158,0.9,2.7,75,0.00,,,0.00,WUHU216HW,2013-02-11 22:50:00,
2013-02-11 14:55:00,49.3,41.7,30.33,SSW,203,1.1,2.7,75,0.00,,,0.00,WUHU216HW,2013-02-11 22:55:00,
2013-02-11 15:00:00,49.5,41.9,30.33,SSE,158,0.9,2.0,75,0.00,,,0.00,WUHU216HW,2013-02-11 23:00:00,
2013-02-11 15:05:00,49.7,41.7,30.33,SSW,203,0.4,2.5,74,0.00,,,0.00,WUHU216HW,2013-02-11 23:05:00,
2013-02-11 15:10:00,49.5,41.5,30.33,SSW,203,0.4,2.5,74,0.00,,,0.00,WUHU216HW,2013-02-11 23:10:00,
2013-02-11 15:15:00,49.7,41.7,30.33,SSW,203,1.8,2.5,74,0.00,,,0.00,WUHU216HW,2013-02-11 23:15:00,
2013-02-11 15:20:00,49.7,41.7,30.33,SSE,158,0.7,2.5,74,0.00,,,0.00,WUHU216HW,2013-02-11 23:20:00,
2013-02-11 15:25:00,49.5,41.5,30.33,SSE,158,1.1,2.0,74,0.00,,,0.00,WUHU216HW,2013-02-11 23:25:00,
2013-02-11 15:30:00,49.3,41.3,30.33,SSW,203,1.1,2.5,74,0.00,,,0.00,WUHU216HW,2013-02-11 23:30:00,
2013-02-11 15:35:00,49.1,41.5,30.33,South,180,1.1,2.5,75,0.00,,,0.00,WUHU216HW,2013-02-11 23:35:00,
2013-02-11 15:40:00,49.1,41.5,30.33,SW,225,0.4,1.8,75,0.00,,,0.00,WUHU216HW,2013-02-11 23:40:00,
2013-02-11 15:45:00,49.0,41.3,30.33,SSW,203,0.7,2.5,75,0.00,,,0.00,WUHU216HW,2013-02-11 23:45:00,
2013-02-11 15:50:00,48.8,41.1,30.33,South,180,0.4,2.5,75,0.00,,,0.00,WUHU216HW,2013-02-11 23:50:00,
2013-02-11 15:55:00,49.1,41.5,30.32,WSW,248,0.9,1.8,75,0.00,,,0.00,WUHU216HW,2013-02-11 23:55:00,
2013-02-11 16:00:00,49.3,41.7,30.32,SE,135,1.1,1.8,75,0.00,,,0.00,WUHU216HW,2013-02-12 00:00:00,
2013-02-11 16:05:00,49.3,42.0,30.32,SSE,158,1.3,1.3,76,0.00,,,0.00,WUHU216HW,2013-02-12 00:05:00,
2013-02-11 16:10:00,49.3,41.7,30.32,SSE,158,0.4,1.8,75,0.00,,,0.00,WUHU216HW,2013-02-12 00:10:00,
2013-02-11 16:15:00,49.3,41.7,30.32,SSE,158,0.4,2.5,75,0.00,,,0.00,WUHU216HW,2013-02-12 00:15:00,
2013-02-11 16:20:00,49.1,41.5,30.32,SSW,203,1.3,2.5,75,0.00,,,0.00,WUHU216HW,2013-02-12 00:20:00,
2013-02-11 16:25:00,49.0,41.3,30.32,SSW,203,0.9,3.4,75,0.00,,,0.00,WUHU216HW,2013-02-12 00:25:00,
2013-02-11 16:30:00,49.0,41.7,30.32,SE,135,1.3,3.4,76,0.00,,,0.00,WUHU216HW,2013-02-12 00:30:00,
2013-02-11 16:35:00,49.1,41.5,30.32,SE,135,0.4,2.5,75,0.00,,,0.00,WUHU216HW,2013-02-12 00:35:00,
2013-02-11 16:40:00,49.0,41.7,30.32,SSW,203,0.9,2.5,76,0.00,,,0.00,WUHU216HW,2013-02-12 00:40:00,
2013-02-11 16:45:00,49.0,41.7,30.32,South,180,0.4,1.8,76,0.00,,,0.00,WUHU216HW,2013-02-12 00:45:00,
2013-02-11 16:50:00,49.0,41.7,30.32,SSE,158,1.1,1.8,76,0.00,,,0.00,WUHU216HW,2013-02-12 00:50:00,
2013-02-11 16:55:00,48.6,41.3,30.32,SSW,203,0.4,1.8,76,0.00,,,0.00,WUHU216HW,2013-02-12 00:55:00,
2013-02-11 17:00:00,48.4,41.5,30.32,SW,225,0.7,1.8,77,0.00,,,0.00,WUHU216HW,2013-02-12 01:00:00,
2013-02-11 17:05:00,48.1,41.1,30.32,SE,135,1.1,1.8,77,0.00,,,0.00,WUHU216HW,2013-02-12 01:05:00,
2013-02-11 17:10:00,47.9,41.3,30.32,SSE,158,1.8,2.0,78,0.00,,,0.00,WUHU216HW,2013-02-12 01:10:00,
2013-02-11 17:15:00,47.9,41.3,30.32,SSE,158,0.4,2.5,78,0.00,,,0.00,WUHU216HW,2013-02-12 01:15:00,
2013-02-11 17:20:00,47.9,41.3,30.32,SE,135,0.2,2.5,78,0.00,,,0.00,WUHU216HW,2013-02-12 01:20:00,
2013-02-11 17:25:00,47.9,41.3,30.32,SSW,203,0.7,1.6,78,0.00,,,0.00,WUHU216HW,2013-02-12 01:25:00,
2013-02-11 17:30:00,47.9,41.7,30.32,SSE,158,0.7,1.6,79,0.00,,,0.00,WUHU216HW,2013-02-12 01:30:00,
2013-02-11 17:35:00,47.9,41.7,30.32,SSE,158,1.8,2.7,79,0.00,,,0.00,WUHU216HW,2013-02-12 01:35:00,
2013-02-11 17:40:00,47.9,41.7,30.32,South,180,0.2,2.7,79,0.00,,,0.00,WUHU216HW,2013-02-12 01:40:00,
2013-02-11 17:45:00,47.9,41.7,30.32,SSE,158,0.9,1.8,79,0.00,,,0.00,WUHU216HW,2013-02-12 01:45:00,
2013-02-11 17:50:00,47.9,41.7,30.32,SSW,203,0.2,2.0,79,0.00,,,0.00,WUHU216HW,2013-02-12 01:50:00,
2013-02-11 17:55:00,47.9,41.7,30.32,SW,225,0.4,2.0,79,0.00,,,0.00,WUHU216HW,2013-02-12 01:55:00,
2013-02-11 18:00:00,47.9,41.9,30.32,SSE,158,0.2,1.8,80,0.00,,,0.00,WUHU216HW,2013-02-12 02:00:00,
2013-02-11 18:05:00,47.9,41.9,30.32,SSW,203,0.4,1.3,80,0.00,,,0.00,WUHU216HW,2013-02-12 02:05:00,
2013-02-11 18:10:00,47.9,41.9,30.32,SE,135,0.4,1.3,80,0.00,,,0.00,WUHU216HW,2013-02-12 02:10:00,
2013-02-11 18:15:00,47.9,41.9,30.32,SSE,158,0.9,1.3,80,0.00,,,0.00,WUHU216HW,2013-02-12 02:15:00,
2013-02-11 18:20:00,47.9,41.9,30.32,SSE,158,0.4,1.3,80,0.00,,,0.00,WUHU216HW,2013-02-12 02:20:00,
2013-02-11 18:25:00,47.9,41.9,30.33,SSE,158,0.2,1.1,80,0.00,,,0.00,WUHU216HW,2013-02-12 02:25:00,
2013-02-11 18:30:00,47.9,41.9,30.33,SSE,158,0.4,1.1,80,0.00,,,0.00,WUHU216HW,2013-02-12 02:30:00,
2013-02-11 18:35:00,47.9,41.9,30.33,SSE,158,0.4,0.9,80,0.00,,,0.00,WUHU216HW,2013-02-12 02:35:00,
2013-02-11 18:40:00,47.7,41.9,30.33,South,180,0.2,0.9,80,0.00,,,0.00,WUHU216HW,2013-02-12 02:40:00,
2013-02-11 18:45:00,47.5,41.7,30.33,South,180,0.2,0.4,80,0.00,,,0.00,WUHU216HW,2013-02-12 02:45:00,
2013-02-11 18:50:00,47.2,41.3,30.33,SSE,158,0.0,0.4,80,0.00,,,0.00,WUHU216HW,2013-02-12 02:50:00,
2013-02-11 18:55:00,47.0,41.1,30.33,SSE,158,0.0,0.4,80,0.00,,,0.00,WUHU216HW,2013-02-12 02:55:00,
2013-02-11 19:00:00,47.0,41.5,30.33,SSE,158,0.2,0.4,81,0.00,,,0.00,WUHU216HW,2013-02-12 03:00:00,
2013-02-11 19:05:00,47.2,41.7,30.33,South,180,0.0,0.4,81,0.00,,,0.00,WUHU216HW,2013-02-12 03:05:00,
2013-02-11 19:10:00,47.3,41.8,30.33,South,180,0.2,0.4,81,0.00,,,0.00,WUHU216HW,2013-02-12 03:10:00,
2013-02-11 19:15:00,47.5,41.9,30.33,South,180,0.0,0.4,81,0.00,,,0.00,WUHU216HW,2013-02-12 03:15:00,
2013-02-11 19:20:00,47.7,42.1,30.33,SSE,158,0.4,0.4,81,0.00,,,0.00,WUHU216HW,2013-02-12 03:20:00,
2013-02-11 19:25:00,47.7,42.1,30.32,SSE,158,0.4,0.7,81,0.00,,,0.00,WUHU216HW,2013-02-12 03:25:00,
2013-02-11 19:30:00,47.7,42.1,30.32,SSE,158,0.7,1.1,81,0.00,,,0.00,WUHU216HW,2013-02-12 03:30:00,
2013-02-11 19:35:00,47.5,41.9,30.33,SSE,158,0.0,1.1,81,0.00,,,0.00,WUHU216HW,2013-02-12 03:35:00,
2013-02-11 19:40:00,47.5,41.9,30.33,SSE,158,0.0,0.7,81,0.00,,,0.00,WUHU216HW,2013-02-12 03:40:00,
2013-02-11 19:45:00,47.5,41.9,30.33,SSE,158,0.2,0.7,81,0.00,,,0.00,WUHU216HW,2013-02-12 03:45:00,
2013-02-11 19:50:00,47.5,41.9,30.33,SSE,158,0.4,0.4,81,0.00,,,0.00,WUHU216HW,2013-02-12 03:50:00,
2013-02-11 19:55:00,47.5,42.3,30.33,SSE,158,0.4,0.4,82,0.00,,,0.00,WUHU216HW,2013-02-12 03:55:00,
2013-02-11 20:00:00,47.5,42.3,30.32,SSE,158,0.4,1.1,82,0.00,,,0.00,WUHU216HW,2013-02-12 04:00:00,
2013-02-11 20:05:00,47.5,42.3,30.33,SSE,158,0.2,1.1,82,0.00,,,0.00,WUHU216HW,2013-02-12 04:05:00,
2013-02-11 20:10:00,47.3,42.1,30.33,SSE,158,0.7,1.1,82,0.00,,,0.00,WUHU216HW,2013-02-12 04:10:00,
2013-02-11 20:15:00,47.3,42.1,30.33,SE,135,0.4,1.1,82,0.00,,,0.00,WUHU216HW,2013-02-12 04:15:00,
2013-02-11 20:20:00,47.3,42.5,30.32,SE,135,0.4,0.9,83,0.00,,,0.00,WUHU216HW,2013-02-12 04:20:00,
2013-02-11 20:25:00,47.5,42.6,30.33,SSE,158,0.2,0.9,83,0.00,,,0.00,WUHU216HW,2013-02-12 04:25:00,
2013-02-11 20:30:00,47.5,42.6,30.33,SSE,158,0.2,0.9,83,0.00,,,0.00,WUHU216HW,2013-02-12 04:30:00,
2013-02-11 20:35:00,47.5,42.6,30.33,SSE,158,0.2,0.7,83,0.00,,,0.00,WUHU216HW,2013-02-12 04:35:00,
2013-02-11 20:40:00,47.5,42.6,30.33,SSE,158,0.0,0.4,83,0.00,,,0.00,WUHU216HW,2013-02-12 04:40:00,
2013-02-11 20:45:00,47.7,42.8,30.33,SSE,158,0.0,0.4,83,0.00,,,0.00,WUHU216HW,2013-02-12 04:45:00,
2013-02-11 20:50:00,47.7,42.8,30.33,SSE,158,0.2,0.4,83,0.00,,,0.00,WUHU216HW,2013-02-12 04:50:00,
2013-02-11 20:55:00,47.7,42.8,30.33,SSE,158,0.0,0.4,83,0.00,,,0.00,WUHU216HW,2013-02-12 04:55:00,
2013-02-11 21:00:00,47.3,42.5,30.33,SSE,158,0.2,0.4,83,0.00,,,0.00,WUHU216HW,2013-02-12 05:00:00,
2013-02-11 21:05:00,47.0,42.1,30.33,SSW,203,0.4,0.4,83,0.00,,,0.00,WUHU216HW,2013-02-12 05:05:00,
2013-02-11 21:10:00,46.8,42.0,30.33,South,180,0.2,0.9,83,0.00,,,0.00,WUHU216HW,2013-02-12 05:10:00,
2013-02-11 21:15:00,46.6,41.8,30.33,South,180,0.2,0.9,83,0.00,,,0.00,WUHU216HW,2013-02-12 05:15:00,
2013-02-11 21:20:00,46.4,42.0,30.33,South,180,0.0,0.4,84,0.00,,,0.00,WUHU216HW,2013-02-12 05:20:00,
2013-02-11 21:25:00,46.4,42.0,30.33,South,180,0.0,0.2,84,0.00,,,0.00,WUHU216HW,2013-02-12 05:25:00,
2013-02-11 21:30:00,46.4,42.0,30.33,South,180,0.0,0.4,84,0.00,,,0.00,WUHU216HW,2013-02-12 05:30:00,
2013-02-11 21:35:00,46.3,41.8,30.33,South,180,0.0,0.4,84,0.00,,,0.00,WUHU216HW,2013-02-12 05:35:00,
2013-02-11 21:40:00,46.3,42.0,30.33,SSW,203,0.0,0.4,85,0.00,,,0.00,WUHU216HW,2013-02-12 05:40:00,
2013-02-11 21:45:00,46.1,41.9,30.33,SSW,203,0.2,0.4,85,0.00,,,0.00,WUHU216HW,2013-02-12 05:45:00,
2013-02-11 21:50:00,46.1,41.9,30.33,SSW,203,0.2,0.2,85,0.00,,,0.00,WUHU216HW,2013-02-12 05:50:00,
2013-02-11 21:55:00,46.1,41.9,30.33,SSE,158,0.2,0.4,85,0.00,,,0.00,WUHU216HW,2013-02-12 05:55:00,
2013-02-11 22:00:00,45.9,41.7,30.33,SSE,158,0.2,0.7,85,0.00,,,0.00,WUHU216HW,2013-02-12 06:00:00,
2013-02-11 22:05:00,45.9,41.7,30.33,SSE,158,0.7,0.7,85,0.00,,,0.00,WUHU216HW,2013-02-12 06:05:00,
2013-02-11 22:10:00,45.7,41.5,30.33,SSW,203,0.4,0.7,85,0.00,,,0.00,WUHU216HW,2013-02-12 06:10:00,
2013-02-11 22:15:00,45.7,41.8,30.33,SSE,158,1.3,1.8,86,0.00,,,0.00,WUHU216HW,2013-02-12 06:15:00,
2013-02-11 22:20:00,45.7,41.8,30.33,SSE,158,1.1,1.8,86,0.00,,,0.00,WUHU216HW,2013-02-12 06:20:00,
2013-02-11 22:25:00,45.7,41.8,30.33,SSE,158,0.9,1.8,86,0.00,,,0.00,WUHU216HW,2013-02-12 06:25:00,
2013-02-11 22:30:00,45.7,41.8,30.33,SSW,203,0.4,2.5,86,0.00,,,0.00,WUHU216HW,2013-02-12 06:30:00,
2013-02-11 22:35:00,45.7,41.8,30.33,South,180,0.4,2.5,86,0.00,,,0.00,WUHU216HW,2013-02-12 06:35:00,
2013-02-11 22:40:00,45.7,42.1,30.33,SSW,203,0.9,2.2,87,0.00,,,0.00,WUHU216HW,2013-02-12 06:40:00,
2013-02-11 22:45:00,45.7,42.1,30.33,SSE,158,1.1,2.2,87,0.00,,,0.00,WUHU216HW,2013-02-12 06:45:00,
2013-02-11 22:50:00,45.5,42.0,30.33,South,180,1.6,2.2,87,0.00,,,0.00,WUHU216HW,2013-02-12 06:50:00,
2013-02-11 22:55:00,45.5,42.0,30.33,SSE,158,0.4,2.2,87,0.00,,,0.00,WUHU216HW,2013-02-12 06:55:00,
2013-02-11 23:00:00,45.5,42.0,30.34,SSE,158,0.2,1.8,87,0.00,,,0.00,WUHU216HW,2013-02-12 07:00:00,
2013-02-11 23:05:00,45.5,42.0,30.34,SSW,203,0.4,1.1,87,0.00,,,0.00,WUHU216HW,2013-02-12 07:05:00,
2013-02-11 23:10:00,45.5,42.0,30.33,SSW,203,1.1,1.8,87,0.00,,,0.00,WUHU216HW,2013-02-12 07:10:00,
2013-02-11 23:15:00,45.5,42.0,30.34,SSW,203,0.7,1.8,87,0.00,,,0.00,WUHU216HW,2013-02-12 07:15:00,
2013-02-11 23:20:00,45.4,41.8,30.34,SSW,203,1.8,1.8,87,0.00,,,0.00,WUHU216HW,2013-02-12 07:20:00,
2013-02-11 23:25:00,45.5,42.0,30.34,South,180,0.7,1.8,87,0.00,,,0.00,WUHU216HW,2013-02-12 07:25:00,
2013-02-11 23:30:00,45.4,41.8,30.34,SSW,203,0.9,2.0,87,0.00,,,0.00,WUHU216HW,2013-02-12 07:30:00,
2013-02-11 23:35:00,45.4,42.0,30.34,South,180,0.2,2.0,88,0.00,,,0.00,WUHU216HW,2013-02-12 07:35:00,
2013-02-11 23:40:00,45.4,42.0,30.34,SW,225,0.4,1.3,88,0.00,,,0.00,WUHU216HW,2013-02-12 07:40:00,
2013-02-11 23:45:00,45.4,42.0,30.34,SE,135,0.7,1.3,88,0.00,,,0.00,WUHU216HW,2013-02-12 07:45:00,
2013-02-11 23:50:00,45.4,42.0,30.34,South,180,0.4,1.1,88,0.00,,,0.00,WUHU216HW,2013-02-12 07:50:00,
2013-02-11 23:55:00,45.4,42.0,30.34,SSE,158,0.9,1.8,88,0.00,,,0.00,WUHU216HW,2013-02-12 07:55:00,